Flag for Greece Weather past 2 weeks in Iráklion, Crete, Greece

Now
88 °F

Sunny.


Feels Like: 94 °F
Forecast: 81 / 86 °F
Wind: 10 mph from Northwest

Location: Heraklion Airport

Current Time: Aug 1, 2015 at 3:27:38 PM

Latest Report: Aug 1, 2015 at 2:50 PM


Visibility: 10 mi

Pressure: 29.83 "Hg

Humidity: 59%

Dew point: 72 °F

Location of IráklionLocation

Historic Weather in Iráklion — Graph

°F

Iráklion temperature yesterday

Maximum temperature yesterday: 91 °F (at 10:50 AM)
Minimum temperature yesterday: 75 °F (at 5:50 AM)
Average temperature yesterday: 84 °F

Past Weeks' High & Low Weather Summary

 TemperatureHumidityPressure
High91 °F (Jul 30, 1:50 PM)94% (Jul 27, 5:50 AM)29.92 "Hg (Jul 27, 5:50 AM)
Low68 °F (Jul 21, 4:50 AM)38% (Jul 31, 8:50 AM)29.68 "Hg (Jul 28, 2:50 AM)
Average80 °F68%29.77 "Hg
* Reported Jul 17 1:20 PM — Aug 1 1:50 PM, Iráklion, Weather by CustomWeather, © 2015

Note: Actual official high and low records may vary slightly from our data, if they occured in-between our weather recording intervals... More about our weather records

Advertising

Iráklion weather history for previous 24 hours

 ConditionsComfort  
Time TempWeatherWind HumidityBarometerVisibility
1:50 PM
Sat, Aug 1
86 °FSunny.10 mph66%29.83 "Hg10 mi
1:20 PM88 °FSunny.9 mph55%29.83 "Hg10 mi
12:50 PM88 °FSunny.9 mph55%29.83 "Hg10 mi
11:50 AM88 °FSunny.10 mph55%29.83 "Hg10 mi
11:20 AM88 °FSunny.10 mph55%29.80 "Hg10 mi
10:50 AM88 °FSunny.12 mph55%29.80 "Hg10 mi
10:20 AM86 °FSunny.9 mph59%29.80 "Hg10 mi
9:50 AM86 °FSunny.9 mph59%29.80 "Hg10 mi
9:20 AM86 °FSunny.12 mph62%29.77 "Hg10 mi
8:50 AM86 °FSunny.12 mph62%29.77 "Hg10 mi
8:20 AM82 °FSunny.5 mph66%29.77 "Hg10 mi
6:50 AM77 °FPassing clouds.3 mph79%29.77 "HgN/A
6:20 AM75 °FPassing clouds.No wind89%29.77 "HgN/A
5:50 AM75 °FPassing clouds.No wind89%29.77 "HgN/A
4:50 AM77 °FClear.No wind83%29.77 "Hg10 mi
4:20 AM77 °FClear.5 mph83%29.77 "Hg10 mi
3:50 AM77 °FClear.5 mph83%29.77 "Hg10 mi
3:20 AM77 °FClear.No wind83%29.77 "Hg10 mi
2:50 AM77 °FClear.No wind83%29.77 "Hg10 mi
2:20 AM77 °FClear.5 mph83%29.74 "Hg10 mi
1:50 AM77 °FClear.5 mph83%29.74 "Hg10 mi
1:20 AM79 °FClear.6 mph84%29.77 "Hg10 mi
12:50 AM79 °FClear.5 mph84%29.77 "Hg10 mi
12:20 AM79 °FClear.No wind89%29.74 "Hg10 mi
11:50 PM
Fri, Jul 31
79 °FClear.3 mph89%29.74 "Hg10 mi
11:20 PM79 °FClear.5 mph79%29.74 "Hg10 mi
10:50 PM79 °FClear.6 mph79%29.74 "Hg10 mi
10:20 PM82 °FClear.7 mph79%29.74 "Hg10 mi
9:50 PM82 °FClear.7 mph79%29.74 "Hg10 mi
9:20 PM82 °FSunny.6 mph89%29.71 "Hg10 mi
8:50 PM82 °FSunny.8 mph89%29.71 "Hg10 mi
8:20 PM84 °FSunny.3 mph79%29.71 "Hg10 mi
7:50 PM84 °FSunny.5 mph79%29.71 "Hg10 mi
7:20 PM86 °FSunny.3 mph75%29.71 "Hg10 mi
6:50 PM86 °FSunny.5 mph75%29.71 "Hg10 mi
6:20 PM86 °FSunny.8 mph75%29.71 "Hg10 mi
5:50 PM86 °FSunny.8 mph75%29.71 "Hg10 mi
5:20 PM88 °FSunny.7 mph79%29.71 "Hg10 mi
4:50 PM88 °FSunny.7 mph79%29.71 "Hg10 mi
4:20 PM90 °FSunny.7 mph67%29.71 "Hg10 mi
3:50 PM90 °FSunny.9 mph67%29.71 "Hg10 mi
3:20 PM90 °FSunny.6 mph67%29.71 "Hg10 mi
Weather by CustomWeather, © 2015

See weather overviewHow to use our weather pages